Regional Weather Roundup
Issued by NWS Cleveland, OH

Home | Current Version | Previous Version | Graphics & Text | Print | Product List | Glossary On
Versions: 1 2 3 4 5 6 7 8 9 10 11 12 13 14 15 16 17 18 19 20 21 22 23 24 25 26 27 28 29 30 31 32 33 34 35 36 37 38 39 40 41 42 43 44 45 46 47 48 49 50
000
ASUS41 KCLE 240512
RWRCLE
OHIO REGIONAL WEATHER ROUNDUP
NATIONAL WEATHER SERVICE WILMINGTON, OH
100 AM EDT SUN SEP 24 2017

NOTE: "FAIR" INDICATES FEW OR NO CLOUDS BELOW 12,000 FEET WITH NO
SIGNIFICANT WEATHER AND/OR OBSTRUCTIONS TO VISIBILITY.

OHZ001>008-015>018-024>027-034-035-043-044-240600-
   NORTHWEST OHIO

CITY           SKY/WX    TMP DP  RH WIND       PRES   REMARKS
DEFIANCE       FAIR      65  60  84 CALM      30.12R
FINDLAY        FAIR      70  57  63 E6        30.11S
TOLEDO EXPRESS FAIR      67  65  93 CALM      30.12S
TOLEDO EXEC    FAIR      70  60  70 E5        30.13R
LIMA           FAIR      65  61  87 E6        30.12S
$$

OHZ009>014-019>023-028>033-038-089-240600-
   NORTHEAST OHIO

CITY           SKY/WX    TMP DP  RH WIND       PRES   REMARKS
CLE-HOPKINS    FAIR      69  58  67 CALM      30.15R
CLE-LAKEFRONT  FAIR      72  61  68 CALM      30.12R
CUY CO. ARPT   NOT AVBL
LORAIN-ELYRIA  FAIR      61  54  77 CALM      30.14R
ASHTABULA      FAIR      62  62 100 CALM      30.15S
AKRON-CANTON   FAIR      71  59  65 NE5       30.15S
WOOSTER        FAIR      60  58  92 CALM      30.15S
MANSFIELD      FAIR      68  59  73 CALM      30.15S
YOUNGSTOWN     FAIR      65  62  90 E5        30.15S
$$

OHZ042-051>053-060>062-070>072-077>081-240600-
  SOUTHWEST OHIO

CITY           SKY/WX    TMP DP  RH WIND       PRES   REMARKS
CINC-COVINGTON FAIR      74  64  71 CALM      30.08S
CINC-LUNKEN    FAIR      65  64  97 CALM      30.08S
HAMILTON       FAIR      64  63  96 CALM      30.09S
DAYTON         FAIR      69  59  70 NE3       30.12S
WRIGHT-PAT AFB FAIR      67  64  89 CALM      30.10S
DAYTON GENERAL FAIR      69  59  70 E5        30.10R
WILMINGTON     FAIR      63  59  87 CALM      30.10S
$$

OHZ036-037-039>041-045>050-054>059-063>069-073>076-082>088-240600-
  CENTRAL AND SOUTHEAST OHIO

CITY           SKY/WX    TMP DP  RH WIND       PRES   REMARKS
COLUMBUS       FAIR      69  61  75 N5        30.10S
OSU AIRPORT    FAIR      67  61  81 NE5       30.11S
BOLTON FIELD   FAIR      64  60  90 CALM      30.11S
RICKENBACK AFB FAIR      65  60  83 NE6       30.09S
NEWARK         FAIR      61  60  97 CALM      30.12R
MARION         FAIR      66  58  75 CALM      30.13S
LANCASTER      FAIR      58  57  97 CALM      30.12R FOG
ZANESVILLE     FAIR      62  60  93 CALM      30.12R
NEW PHILLY     FAIR      62  61  96 CALM      30.14S
$$



USA.gov is the U.S. government's official web portal to all federal, state and local government web resources and services.